カタログに戻る

STARLINK-34011

運用中通信VLEO
NORAD 63845·PAYLOAD·🇺🇸 United States

打ち上げ May 7, 2025 から Cape Canaveral Space Force Station

Loading…

次のパス (今後24時間)

TLE

最新Source: CelesTrak SupGP

元期: Sep 15, 2026, 03:11 UTC

1 63845C 25093K   26258.13312500 -.00008842  00000+0 -32013-3 0  2586
2 63845  42.9994  88.4295 0001481 272.1118 333.3610 15.27594148    13

AllMySatでSTARLINK-34011をリアルタイム追跡

Download on the App Store